Location: Newark
(45.2500°N, 7.5833°E)
Time: 02:15:01
(UTC+00:00)

First-Move - Pass Details

Date: 22 February 2020
Orbit: 576 x 669 km, 97.6° (Epoch: 08 April)

Event Time Altitude Azimuth Distance (km) Brightness Sun altitude
Rises 04:42:03 0° 24° (NNE) 3,024 ? -18.1°
Reaches altitude 10° 04:44:40 10° 38° (NE) 2,106 ? -17.7°
Maximum altitude 04:48:26 24° 93° (E) 1,365 ? -17.0°
Drops below altitude 10° 04:52:08 10° 148° (SSE) 2,077 ? -16.3°
Sets 04:54:42 0° 162° (SSE) 2,973 ? -15.9°
